Starlink 32555

operational
NORAD ID: 61918 Int'l Des: 2024-207 Owner: SPXS Country: US Constellation: starlink
LEOCIRCULAR

About Starlink 32555

Description loading...

Live Position

Loading 3D Globe...

Upcoming Passes

Altitude History

Altitude vs Time

uPlot chart will show altitude changes over time

Two-Line Element Set

1 61918U 24207G 26048.39660317 .00024853 00000-0 90935-3 0 9996
2 61918 43.0022 40.2259 0002024 264.7220 95.3401 15.27588709 71575
Epoch: Feb 17, 2026 • Age: 21 hours

Current Status

Altitude 484.2 km
Velocity 7.63 km/s
Sub-Earth Point 28.52°N, 66.02°W
Launch Date Nov 11, 2024
Age 1.2 years
Type internet

Technical Details

Classification Payload
Mass 730.00 kg
Dry Mass 700.00 kg
Total Mass 730.00 kg
Length 0.30 m
Diameter 4.10 m
Span 29.00 m
Shape Box + pan
Manufacturer SPXS
Bus Type Starlink V2M
Phase Status In Orbit
Owner/State SPXS/US

Large Constellations

Loading constellations...